When you browse on this site, cookies collect data to enhance your experience and personalize the content and advertising you see.
Visit our Privacy Policy to learn more. By continuing to use the site, you agree to this use of cookies and data.
  • In Lithuania
  • List of Countries
  • For 7 days
  • Water Temperature
  • Satellite Maps
  • Weather Map
  • Weather Widgets
  • user-avatar
    Login

    Hourly Weather Uige

    Today, 12 December, Wednesday

    Time Temperature Precipitation Wind Pressure Humidity
    00:00 +21°C° 0.6 mm 1 mps 692 mmHg 97%
    01:00 +21°C° 0 mm 1 mps 692 mmHg 97%
    02:00 +21°C° 0 mm 1 mps 692 mmHg 98%
    03:00 +21°C° 0 mm 1 mps 692 mmHg 98%
    04:00 +21°C° 0 mm 1 mps 692 mmHg 98%
    05:00 +19°C° 0 mm 0 mps 692 mmHg 97%
    06:00 +20°C° 0 mm 0 mps 692 mmHg 96%
    07:00 +21°C° 0 mm 0 mps 693 mmHg 93%
    08:00 +23°C° 0.3 mm 0 mps 693 mmHg 86%
    09:00 +25°C° 0.3 mm 0 mps 693 mmHg 79%
    10:00 +26°C° 0.3 mm 0 mps 694 mmHg 73%
    11:00 +29°C° 0.7 mm 1 mps 693 mmHg 71%
    12:00 +30°C° 0.7 mm 1 mps 693 mmHg 69%
    13:00 +30°C° 0.7 mm 1 mps 692 mmHg 67%
    14:00 +29°C° 1.7 mm 1 mps 692 mmHg 73%
    15:00 +28°C° 1.7 mm 1 mps 691 mmHg 80%
    16:00 +28°C° 1.7 mm 1 mps 690 mmHg 86%
    17:00 +26°C° 0.9 mm 1 mps 691 mmHg 89%
    18:00 +24°C° 0.9 mm 1 mps 691 mmHg 91%
    19:00 +23°C° 0.9 mm 1 mps 691 mmHg 94%
    20:00 +20°C° 0 mm 0 mps 692 mmHg 95%
    21:00 +20°C° 0 mm 0 mps 692 mmHg 96%
    22:00 +20°C° 0 mm 0 mps 693 mmHg 96%
    23:00 +20°C° 0.3 mm 0 mps 693 mmHg 97%

    Tomorrow, 13 December, Thursday

    Time Temperature Precipitation Wind Pressure Humidity
    00:00 +19°C° 0.3 mm 0 mps 692 mmHg 97%
    01:00 +19°C° 0.3 mm 0 mps 692 mmHg 98%
    02:00 +19°C° 0 mm 0 mps 692 mmHg 98%
    03:00 +19°C° 0 mm 0 mps 692 mmHg 98%
    04:00 +19°C° 0 mm 0 mps 692 mmHg 98%
    05:00 +20°C° 0 mm 0 mps 692 mmHg 98%
    06:00 +20°C° 0 mm 0 mps 693 mmHg 97%
    07:00 +20°C° 0 mm 0 mps 693 mmHg 97%
    08:00 +22°C° 0 mm 0 mps 693 mmHg 91%
    09:00 +25°C° 0 mm 1 mps 694 mmHg 86%
    10:00 +26°C° 0 mm 1 mps 694 mmHg 80%
    11:00 +27°C° 0.8 mm 1 mps 693 mmHg 80%
    12:00 +27°C° 0.8 mm 1 mps 693 mmHg 80%
    13:00 +28°C° 0.8 mm 1 mps 692 mmHg 80%
    14:00 +27°C° 1.1 mm 1 mps 692 mmHg 82%
    15:00 +27°C° 1.1 mm 1 mps 691 mmHg 83%
    16:00 +27°C° 1.1 mm 1 mps 691 mmHg 85%
    17:00 +25°C° 1.3 mm 1 mps 691 mmHg 89%
    18:00 +24°C° 1.3 mm 1 mps 691 mmHg 92%
    19:00 +23°C° 1.3 mm 1 mps 692 mmHg 96%
    20:00 +21°C° 0.5 mm 0 mps 692 mmHg 96%
    21:00 +20°C° 0.5 mm 0 mps 693 mmHg 97%
    22:00 +20°C° 0.5 mm 0 mps 693 mmHg 97%
    23:00 +20°C° 0.3 mm 0 mps 693 mmHg 97%

    Day after tomorrow, 14 December, Friday

    Time Temperature Precipitation Wind Pressure Humidity
    00:00 +20°C° 0.3 mm 0 mps 693 mmHg 97%
    01:00 +19°C° 0.3 mm 0 mps 693 mmHg 97%
    02:00 +19°C° 0.1 mm 0 mps 692 mmHg 97%
    03:00 +19°C° 0.1 mm 0 mps 692 mmHg 96%
    04:00 +19°C° 0.1 mm 0 mps 692 mmHg 96%
    05:00 +19°C° 0.1 mm 0 mps 692 mmHg 96%
    06:00 +20°C° 0.1 mm 0 mps 693 mmHg 96%
    07:00 +20°C° 0.1 mm 0 mps 693 mmHg 96%
    08:00 +21°C° 0.2 mm 0 mps 694 mmHg 94%
    09:00 +22°C° 0.2 mm 0 mps 694 mmHg 91%
    10:00 +25°C° 0.2 mm 1 mps 694 mmHg 89%
    11:00 +26°C° 0.3 mm 1 mps 693 mmHg 84%
    12:00 +26°C° 0.3 mm 1 mps 693 mmHg 79%
    13:00 +27°C° 0.3 mm 2 mps 692 mmHg 74%
    14:00 +27°C° 0.4 mm 1 mps 692 mmHg 76%
    15:00 +27°C° 0.4 mm 1 mps 691 mmHg 78%
    16:00 +27°C° 0.4 mm 1 mps 691 mmHg 80%
    17:00 +25°C° 0.5 mm 1 mps 691 mmHg 85%
    18:00 +24°C° 0.5 mm 1 mps 692 mmHg 90%
    19:00 +22°C° 0.5 mm 1 mps 692 mmHg 95%
    20:00 +22°C° 0.2 mm 1 mps 693 mmHg 95%
    21:00 +19°C° 0.2 mm 0 mps 693 mmHg 96%
    22:00 +19°C° 0.2 mm 0 mps 693 mmHg 97%
    23:00 +19°C° 0.1 mm 0 mps 693 mmHg 98%

    15 December, Saturday

    Time Temperature Precipitation Wind Pressure Humidity
    00:00 +21°C° 0.1 mm 1 mps 693 mmHg 98%
    01:00 +21°C° 0.1 mm 1 mps 692 mmHg 99%
    02:00 +21°C° 0 mm 1 mps 692 mmHg 99%
    03:00 +21°C° 0 mm 1 mps 692 mmHg 98%
    04:00 +21°C° 0 mm 1 mps 692 mmHg 98%
    05:00 +21°C° 0 mm 1 mps 692 mmHg 98%
    06:00 +21°C° 0 mm 1 mps 693 mmHg 97%
    07:00 +21°C° 0 mm 1 mps 693 mmHg 97%
    08:00 +23°C° 0 mm 1 mps 693 mmHg 89%
    09:00 +24°C° 0 mm 1 mps 694 mmHg 81%
    10:00 +26°C° 0 mm 1 mps 694 mmHg 73%
    11:00 +27°C° 0 mm 1 mps 693 mmHg 67%
    12:00 +28°C° 0 mm 1 mps 693 mmHg 62%
    13:00 +29°C° 0 mm 2 mps 692 mmHg 56%
    14:00 +29°C° 0.1 mm 2 mps 692 mmHg 60%
    15:00 +28°C° 0.1 mm 2 mps 691 mmHg 63%
    16:00 +28°C° 0.1 mm 2 mps 691 mmHg 67%
    17:00 +26°C° 0.1 mm 1 mps 691 mmHg 73%
    18:00 +25°C° 0.1 mm 1 mps 691 mmHg 79%
    19:00 +21°C° 0.1 mm 0 mps 692 mmHg 85%
    20:00 +22°C° 0 mm 1 mps 692 mmHg 86%
    21:00 +22°C° 0 mm 1 mps 692 mmHg 87%
    22:00 +21°C° 0 mm 1 mps 692 mmHg 88%
    23:00 +21°C° 0 mm 1 mps 692 mmHg 88%

    16 December, Sunday

    Time Temperature Precipitation Wind Pressure Humidity
    00:00 +21°C° 0 mm 1 mps 692 mmHg 87%
    01:00 +19°C° 0 mm 0 mps 691 mmHg 87%
    02:00 +19°C° 0 mm 0 mps 691 mmHg 86%
    03:00 +19°C° 0 mm 0 mps 691 mmHg 86%
    04:00 +19°C° 0 mm 0 mps 691 mmHg 85%
    05:00 +19°C° 0 mm 0 mps 692 mmHg 85%
    06:00 +20°C° 0 mm 0 mps 692 mmHg 84%
    07:00 +20°C° 0 mm 0 mps 693 mmHg 83%
    08:00 +22°C° 0 mm 0 mps 693 mmHg 75%
    09:00 +26°C° 0 mm 1 mps 694 mmHg 67%
    10:00 +28°C° 0 mm 1 mps 694 mmHg 59%
    11:00 +29°C° 0 mm 1 mps 693 mmHg 57%
    12:00 +30°C° 0 mm 1 mps 693 mmHg 54%
    13:00 +30°C° 0 mm 2 mps 692 mmHg 51%
    14:00 +30°C° 0 mm 2 mps 692 mmHg 55%
    15:00 +30°C° 0 mm 2 mps 691 mmHg 58%
    16:00 +30°C° 0 mm 2 mps 691 mmHg 62%
    17:00 +28°C° 0 mm 1 mps 691 mmHg 69%
    18:00 +26°C° 0 mm 1 mps 691 mmHg 75%
    19:00 +24°C° 0 mm 1 mps 691 mmHg 82%
    20:00 +23°C° 0.1 mm 1 mps 691 mmHg 86%
    21:00 +22°C° 0.1 mm 1 mps 692 mmHg 90%
    22:00 +21°C° 0.1 mm 1 mps 692 mmHg 95%
    23:00 +21°C° 0.2 mm 1 mps 692 mmHg 96%

    17 December, Monday

    Time Temperature Precipitation Wind Pressure Humidity
    00:00 +21°C° 0.2 mm 1 mps 692 mmHg 97%
    01:00 +21°C° 0.2 mm 1 mps 692 mmHg 98%
    02:00 +21°C° 0 mm 1 mps 692 mmHg 98%
    03:00 +21°C° 0 mm 1 mps 692 mmHg 98%
    04:00 +21°C° 0 mm 1 mps 692 mmHg 98%
    05:00 +21°C° 0 mm 1 mps 692 mmHg 97%
    06:00 +21°C° 0 mm 1 mps 693 mmHg 96%
    07:00 +21°C° 0 mm 1 mps 693 mmHg 96%
    08:00 +23°C° 0 mm 1 mps 693 mmHg 86%
    09:00 +25°C° 0 mm 1 mps 693 mmHg 77%
    10:00 +27°C° 0 mm 1 mps 694 mmHg 67%
    11:00 +28°C° 0.1 mm 1 mps 693 mmHg 63%
    12:00 +29°C° 0.1 mm 2 mps 692 mmHg 58%
    13:00 +31°C° 0.1 mm 2 mps 692 mmHg 53%
    14:00 +30°C° 0.2 mm 2 mps 691 mmHg 56%
    15:00 +30°C° 0.2 mm 2 mps 691 mmHg 60%
    16:00 +29°C° 0.2 mm 2 mps 690 mmHg 63%
    17:00 +27°C° 0.1 mm 2 mps 691 mmHg 71%
    18:00 +25°C° 0.1 mm 1 mps 691 mmHg 80%
    19:00 +23°C° 0.1 mm 1 mps 691 mmHg 89%
    20:00 +22°C° 0.2 mm 1 mps 691 mmHg 90%
    21:00 +20°C° 0.2 mm 0 mps 692 mmHg 92%
    22:00 +20°C° 0.2 mm 0 mps 692 mmHg 94%
    23:00 +19°C° 0.2 mm 0 mps 692 mmHg 95%
    Show more